Location: Maignaut
(43.8886°N, 0.4051°E)
Time: 12:00:00
(UTC+00:00)

Resurs 01 Rocket - Pass Details

Date: 27 February 2020
Orbit: 634 x 644 km, 98.0° (Epoch: 08 April)

Event Time Altitude Azimuth Distance (km) Brightness Sun altitude
Exits shadow 20:48:56 19° 336° (NNW) 1,527 4.0 -33.6°
Drops below altitude 10° 20:50:15 10° 340° (NNW) 2,042 4.7 -33.8°
Sets 20:52:29 0° 344° (NNW) 2,954 5.5 -34.2°
